[[{"header":{"parameterUnit":"m.s-1","parameterCategory":1,"la1":30.2991,"la2":30.254,"lo1":-89.0895,"lo2":-89.0444,"dy":0.0017,"dx":0.0017,"nx":28,"ny":28,"refTime":"2023-04-05T15:00:00:Z","depth":0,"parameterNumber":2,"parameterNumberName":"U-component_of_WINDS"},"data":[0,0,0,0,0,0,0,0,0,0,0,0,0,0,0,0,0,0,0,0,0,0,0,0,0,0,0,0,0,0,0,0,0,0,0,0,0,0,0,0,0,0,0,0,0,0,0,0,0,0,0,0,0,0,0,0,0,0,-3.9792,-3.9793,0,-3.9901,-3.9902,-3.9903,-3.9891,-3.9889,-3.9888,-3.9886,-3.9996,-4.0001,-4.0005,0,0,0,0,0,0,0,0,0,0,0,0,0,-3.9575,-3.9579,-3.9792,-3.9793,-3.9795,-3.99,-3.9902,-3.9903,-3.9891,-3.9889,-3.9887,-3.9885,-3.9995,-4.0,-4.0006,0,0,0,0,0,0,0,0,0,0,0,0,0,-3.9675,-3.958,-3.9792,-3.9802,-3.9804,-3.99,-3.9902,-3.9904,-3.9892,-3.9889,-3.9887,-3.9884,-3.9993,-4.0,-4.0006,-4.01,0,0,-4.0027,-4.003,0,0,0,0,0,0,0,0,-3.9669,-3.9683,-3.9799,-3.9801,-3.9804,-3.988,-3.9866,-3.9969,-3.9893,-3.9858,-3.9886,-3.9883,-3.996,-3.9969,-3.9995,-4.0105,-4.011,-4.0028,-4.0032,-4.0035,-4.0037,0,0,0,0,0,0,0,-3.9662,-3.9678,-3.9835,-3.9801,-3.9803,-3.9801,-3.9812,-3.9885,-3.9922,-3.9861,-3.9861,-3.9874,-3.996,-3.9988,-3.9997,-4.0111,-4.0028,-4.0034,-4.0038,-4.004,-4.0304,-4.0307,0,0,0,0,0,0,-3.9653,-3.9673,-3.9832,-3.9838,-3.9729,-3.9807,-3.9819,-3.9858,-3.9921,-3.9928,-3.9876,-3.9873,-3.9978,-3.9989,-4.0001,-4.0114,-4.0035,-4.0041,-4.0045,-4.0301,-4.0305,-4.0308,0,0,0,0,0,0,-3.9649,-3.9667,-3.9827,-3.9755,-3.9775,-3.9813,-3.9856,-3.9861,-3.9889,-3.9932,-3.9939,-3.9897,-3.9976,-3.9992,-4.0076,-4.0118,-4.0044,-4.005,-4.0298,-4.0302,-4.0306,-4.0341,0,0,0,0,0,0,-3.9642,-3.9666,-3.9702,-3.9756,-3.9779,-3.99,-3.9859,-3.9865,-3.9901,-3.9898,-3.9954,-3.9961,-3.9976,-4.0065,-4.0082,-4.0126,-4.0056,-4.0294,-4.03,-4.0305,-4.0337,-4.0347,-4.0355,0,0,0,0,0,-3.9635,-3.9707,-3.9703,-3.9723,-3.9825,-3.9902,-3.9915,-3.993,-3.9905,-3.9941,-3.9969,-3.9959,-4.0111,-4.0074,-4.0093,-4.0139,-4.0291,-4.0298,-4.0304,-4.0332,-4.0345,-4.0355,0,0,0,0,0,0,-3.9656,-3.9714,-3.9711,-3.9803,-3.9848,-3.99,-3.9946,-3.9943,-3.9995,-3.999,-4.0007,-4.002,-4.0104,-4.0131,-4.0088,-4.0233,-4.0198,-4.0208,-4.0213,-4.0225,-4.0233,-4.0224,-4.0061,0,0,0,0,0,-3.9671,-3.9729,-3.9777,-3.9854,-3.9877,-3.9908,-3.9942,-3.995,-3.9997,-4.0015,-4.0049,-4.0095,-4.0153,-4.019,-4.0246,-4.0341,-4.0353,-4.0383,-4.0392,-4.0399,-4.0407,-4.046,-4.0473,-4.0329,-4.0329,-4.0329,0,0,-3.9703,-3.9743,-3.9778,-3.9859,-3.9895,-3.9954,-3.9923,-3.9987,-4.0032,-4.0025,-4.0106,-4.0133,-4.0185,-4.0275,-4.0316,-4.0299,-4.045,-4.0408,-4.0413,-4.0418,-4.0468,-4.0481,-4.0493,-4.0334,-4.0333,-4.0332,0,0,-3.9792,-3.9828,-3.9896,-3.9932,-3.9987,-4.0007,-4.0024,-4.0077,-4.0094,-4.0176,-4.0172,-4.0226,-4.0325,-4.0362,-4.0394,-4.05,-4.0493,-4.0517,-4.0564,-4.0615,-4.0626,-4.0636,-4.0673,-4.0686,-4.0526,-4.0526,-4.0526,0,-3.9825,-3.9914,-3.9931,-3.9996,-4.0031,-4.0029,-4.0098,-4.0133,-4.0202,-4.0227,-4.0208,-4.0333,-4.0368,-4.0467,-4.0492,-4.0519,-4.0538,-4.051,-4.0623,-4.0634,-4.0643,-4.0678,-4.0692,-4.0529,-4.0528,-4.0528,-4.0528,0,-3.9952,-4.0014,-4.0062,-4.013,-4.0172,-4.0238,-4.0265,-4.0305,-4.031,-4.0333,-4.0416,-4.0459,-4.0523,-4.0548,-4.0553,-4.0647,-4.0635,-4.062,-4.0584,-4.0659,-4.0692,-4.0706,-4.0532,-4.0531,-4.0531,-4.053,0,0,-4.0054,-4.0132,-4.0149,-4.018,-4.0241,-4.0289,-4.0356,-4.0419,-4.0453,-4.0502,-4.0558,-4.0644,-4.063,-4.0666,-4.0676,-4.0721,-4.0801,-4.07,-4.0702,-4.0716,-4.0906,-4.0916,-4.0931,-4.0798,-4.0801,-4.0803,-4.0902,0,-4.0148,-4.0266,-4.0283,-4.0387,-4.0445,-4.0445,-4.0503,-4.0547,-4.057,-4.0623,-4.0649,-4.0708,-4.0687,-4.0708,-4.0753,-4.0782,-4.0839,-4.0775,-4.0849,-4.0852,-4.0834,-4.0949,-4.0959,-4.105,-4.0915,-4.0917,-4.0919,0,-4.0272,-4.0325,-4.0434,-4.0488,-4.0513,-4.0565,-4.0624,-4.0675,-4.0725,-4.0739,-4.0781,-4.0786,-4.0855,-4.0818,-4.0914,-4.087,-4.0902,-4.0921,-4.0925,-4.0931,-4.0888,-4.0956,-4.108,-4.1093,-4.0939,-4.0938,-4.0936,0,-4.0334,-4.0433,-4.0511,-4.0538,-4.0602,-4.0639,-4.0668,-4.0715,-4.0752,-4.0805,-4.0829,-4.089,-4.0922,-4.0969,-4.099,-4.0961,-4.1084,-4.1049,-4.1097,-4.1097,-4.1121,-4.1119,-4.125,-4.1145,-4.1145,-4.1145,-4.1144,0,-4.0436,-4.0502,-4.054,-4.0588,-4.0663,-4.0683,-4.0757,-4.0785,-4.0827,-4.0881,-4.0885,-4.0935,-4.0961,-4.1015,-4.1033,-4.1109,-4.1124,-4.1137,-4.1141,-4.1136,-4.1134,-4.1155,-4.1149,-4.1148,-4.1148,-4.1147,-4.1146,0,-4.0516,-4.0544,-4.063,-4.0685,-4.07,-4.0753,-4.08,-4.0846,-4.0871,-4.0938,-4.0955,-4.0993,-4.1057,-4.1084,-4.1162,-4.1174,-4.1261,-4.1261,-4.1244,-4.1245,-4.1291,-4.1286,-4.1439,-4.1459,-4.1342,-4.1343,-4.1344,0,-4.0578,-4.063,-4.069,-4.0727,-4.0757,-4.0815,-4.0853,-4.0876,-4.0915,-4.0977,-4.1016,-4.1081,-4.1133,-4.1236,-4.127,-4.133,-4.133,-4.138,-4.1339,-4.1333,-4.1329,-4.1325,-4.133,-4.1386,-4.1388,-4.1389,-4.1389,0,-4.0685,-4.0696,-4.0751,-4.0811,-4.0857,-4.0905,-4.0953,-4.0982,-4.1012,-4.1057,-4.1122,-4.1163,-4.1244,-4.1308,-4.137,-4.14,-4.14,-4.1402,-4.1416,-4.1411,-4.1398,-4.1404,-4.1263,-4.1398,-4.1397,-4.1397,-4.1396,-4.1396,-4.0757,-4.0803,-4.0853,-4.0914,-4.0952,-4.0996,-4.1043,-4.1073,-4.1129,-4.1196,-4.1207,-4.1277,-4.1327,-4.1411,-4.1443,-4.1499,-4.1486,-4.1507,-4.1511,-4.1516,-4.1518,-4.1392,-4.151,-4.151,-4.151,-4.151,-4.151,0,-4.0862,-4.0895,-4.0951,-4.1017,-4.1066,-4.1063,-4.1115,-4.1155,-4.1217,-4.1264,-4.1316,-4.1391,-4.1454,-4.1494,-4.1557,-4.1593,-4.1595,-4.1609,-4.1605,-4.1612,-4.1526,-4.1507,-4.1606,-4.1606,-4.1606,-4.1606,-4.1606,-4.1606,-4.0922,-4.0999,-4.1017,-4.1113,-4.1146,-4.1214,-4.1245,-4.1286,-4.1323,-4.1408,-4.1459,-4.1485,-4.153,-4.1596,-4.1653,-4.1663,-4.1685,-4.17,-4.1709,-4.1628,-4.1618,-4.1608,-4.159,-4.1705,-4.1705,-4.179,-4.1791,-4.1791]},{"header":{"parameterUnit":"m.s-1","parameterCategory":1,"la1":30.2991,"la2":30.254,"lo1":-89.0895,"lo2":-89.0444,"dy":0.0017,"dx":0.0017,"nx":28,"ny":28,"refTime":"2023-04-05T15:00:00:Z","depth":0,"parameterNumber":3,"parameterNumberName":"V-component_of_WINDS"},"data":[0,0,0,0,0,0,0,0,0,0,0,0,0,0,0,0,0,0,0,0,0,0,0,0,0,0,0,0,0,0,0,0,0,0,0,0,0,0,0,0,0,0,0,0,0,0,0,0,0,0,0,0,0,0,0,0,0,0,2.7587,2.7588,0,2.7654,2.7655,2.7656,2.7673,2.7672,2.7672,2.7672,2.7739,2.7741,2.7744,0,0,0,0,0,0,0,0,0,0,0,0,0,2.7476,2.7478,2.7587,2.7588,2.7589,2.7654,2.7655,2.7656,2.7673,2.7672,2.7672,2.7671,2.7739,2.7741,2.7744,0,0,0,0,0,0,0,0,0,0,0,0,0,2.7532,2.7478,2.7587,2.7605,2.7608,2.7654,2.7655,2.7656,2.7673,2.7672,2.7672,2.7671,2.7738,2.7741,2.7744,2.7777,0,0,2.7754,2.7756,0,0,0,0,0,0,0,0,2.7528,2.7536,2.7602,2.7604,2.7607,2.7655,2.764,2.7697,2.7673,2.7648,2.7672,2.7671,2.7711,2.7717,2.7731,2.778,2.7783,2.7754,2.7756,2.7758,2.7759,0,0,0,0,0,0,0,2.7524,2.7533,2.7614,2.7603,2.7606,2.7611,2.7618,2.7651,2.7682,2.765,2.7652,2.7659,2.7713,2.7728,2.7732,2.7784,2.7754,2.7757,2.7759,2.7761,2.7867,2.7868,0,0,0,0,0,0,2.7517,2.7529,2.7611,2.7616,2.7565,2.7613,2.7621,2.764,2.7682,2.7688,2.766,2.766,2.7722,2.7729,2.7735,2.7778,2.7758,2.7761,2.7763,2.7866,2.7867,2.7868,0,0,0,0,0,0,2.7515,2.7525,2.7609,2.7573,2.7584,2.7616,2.7636,2.7641,2.7656,2.7689,2.7695,2.7669,2.7722,2.773,2.7767,2.7781,2.7762,2.7765,2.7865,2.7866,2.7868,2.7864,0,0,0,0,0,0,2.7512,2.7523,2.7536,2.7573,2.7586,2.7639,2.7637,2.7643,2.7662,2.7663,2.77,2.7705,2.7722,2.7762,2.777,2.7785,2.7768,2.7864,2.7866,2.7867,2.7863,2.7865,2.7866,0,0,0,0,0,2.7508,2.7531,2.7536,2.7546,2.7602,2.764,2.7647,2.7667,2.7663,2.7676,2.7698,2.7704,2.7778,2.7766,2.7775,2.7791,2.7863,2.7865,2.7867,2.7862,2.7864,2.7866,0,0,0,0,0,0,2.7493,2.7536,2.7542,2.7578,2.7606,2.7643,2.7659,2.7668,2.7696,2.7696,2.7719,2.7727,2.7763,2.778,2.7766,2.7827,2.7821,2.7825,2.7814,2.7816,2.7818,2.7813,2.7771,0,0,0,0,0,2.7494,2.7521,2.7557,2.7586,2.7599,2.7627,2.7644,2.7657,2.7686,2.7698,2.7722,2.775,2.778,2.7799,2.7828,2.7866,2.7875,2.7881,2.7883,2.7884,2.7888,2.7912,2.7916,2.7874,2.7874,2.7874,0,0,2.7496,2.7523,2.7539,2.7584,2.7606,2.7635,2.7637,2.7666,2.7688,2.7702,2.7739,2.7758,2.7791,2.7829,2.7847,2.7845,2.7901,2.7887,2.7888,2.789,2.7914,2.7918,2.7921,2.7876,2.7875,2.7875,0,0,2.7515,2.7537,2.7565,2.7588,2.7623,2.7642,2.7649,2.7686,2.7699,2.7737,2.7749,2.7776,2.7826,2.785,2.7868,2.79,2.7908,2.7909,2.7919,2.7942,2.7945,2.7948,2.7961,2.7966,2.7912,2.7912,2.7912,0,2.7513,2.7556,2.7578,2.7608,2.7628,2.7644,2.7673,2.7694,2.7737,2.7751,2.7748,2.7814,2.7837,2.7882,2.7891,2.7904,2.7914,2.7905,2.7943,2.7946,2.7949,2.7962,2.7967,2.7912,2.7912,2.7912,2.7912,0,2.7554,2.7584,2.7602,2.7644,2.7667,2.7696,2.7722,2.7743,2.7755,2.7774,2.7814,2.7843,2.7879,2.7891,2.7902,2.7939,2.7937,2.7938,2.7933,2.7953,2.7966,2.7971,2.7912,2.7912,2.7912,2.7912,0,0,2.7563,2.7619,2.7625,2.7646,2.7687,2.7711,2.7742,2.7779,2.7797,2.7827,2.7854,2.7898,2.7901,2.7922,2.7936,2.7957,2.7983,2.7956,2.7957,2.7961,2.8028,2.8028,2.8033,2.7989,2.799,2.799,2.8026,0,2.7588,2.7644,2.7665,2.7711,2.7741,2.7758,2.7786,2.7815,2.7835,2.7863,2.7885,2.7917,2.7917,2.7931,2.7951,2.7975,2.7997,2.7973,2.8016,2.8017,2.8008,2.8039,2.8038,2.807,2.8031,2.8032,2.8032,0,2.7623,2.7655,2.7705,2.7745,2.7759,2.7783,2.782,2.7847,2.7881,2.7894,2.792,2.7934,2.7969,2.7962,2.8011,2.7994,2.8013,2.8028,2.803,2.8035,2.8026,2.8046,2.8081,2.8086,2.804,2.804,2.8039,0,2.7627,2.7682,2.772,2.7737,2.7785,2.7802,2.7823,2.7856,2.7878,2.7911,2.7926,2.7962,2.7982,2.801,2.8034,2.8026,2.8082,2.8076,2.8095,2.8094,2.8106,2.8105,2.8145,2.8116,2.8116,2.8116,2.8116,0,2.7653,2.7683,2.7723,2.7746,2.7781,2.7806,2.784,2.7862,2.7893,2.7922,2.7938,2.7965,2.7995,2.8026,2.8045,2.8084,2.8092,2.8105,2.811,2.8104,2.8103,2.8117,2.8116,2.8118,2.8117,2.8117,2.8117,0,2.7663,2.769,2.7733,2.7776,2.7788,2.7812,2.7849,2.7873,2.7895,2.7931,2.7941,2.7976,2.8013,2.804,2.8088,2.8101,2.8144,2.8148,2.8133,2.8135,2.8153,2.8152,2.8204,2.8214,2.8178,2.8178,2.8179,0,2.7677,2.7701,2.7748,2.7769,2.779,2.7823,2.7846,2.7873,2.7897,2.794,2.7959,2.7998,2.8031,2.8091,2.812,2.8158,2.8164,2.818,2.8169,2.8164,2.8166,2.8165,2.8168,2.8181,2.8182,2.8182,2.8182,0,2.7701,2.7715,2.7748,2.7787,2.7814,2.7846,2.7877,2.7894,2.7927,2.7953,2.7992,2.8018,2.8069,2.8108,2.8149,2.8171,2.8183,2.8185,2.8192,2.8186,2.8177,2.8184,2.8138,2.8184,2.8184,2.8183,2.8183,2.8183,2.7715,2.7738,2.7776,2.7813,2.784,2.787,2.7896,2.7922,2.7956,2.8,2.8014,2.8056,2.8092,2.8149,2.8172,2.8206,2.8205,2.8214,2.8217,2.8219,2.822,2.8172,2.8213,2.8213,2.8213,2.8213,2.8213,0,2.7741,2.7767,2.7801,2.7846,2.7876,2.7886,2.7922,2.7947,2.7983,2.8017,2.805,2.8097,2.8136,2.817,2.8211,2.8231,2.8238,2.8241,2.824,2.8246,2.8217,2.8208,2.8236,2.8236,2.8236,2.8236,2.8236,2.8235,2.7758,2.7799,2.7818,2.7873,2.7899,2.794,2.7961,2.799,2.8017,2.8069,2.8102,2.8124,2.8159,2.8203,2.8241,2.825,2.8265,2.8267,2.8278,2.825,2.8247,2.8245,2.8237,2.827,2.827,2.8304,2.8304,2.8304]}]]